Showing default

LEMUR 2 URAMCHANSOL, 43183

Orbit data source: Space-Track

LEMUR 2 URAMCHANSOL, 43183 is a payload satellite owned by Spire (US) in SSO that was launched on Thu, 01 Feb 2018 UTC via a SOYUZ-2-1A launch vehicle from the Vostochny Cosmodrome (VOSTO). Payloads include a variety of satellites, spacecraft, and rockets equipped with specific instruments for various scientific and technological missions. These include communications satellites like Starlink; space stations such as the ISS; scientific satellites like the Hubble; Earth observation satellites from companies like Planet Labs, Umbra, and HawkEye 360; GPS; miniature CubeSats for education and research; and military/defense satellites.

Loading next visibility...
LEMUR 2 URAMCHANSOL details
Identifier
43183, 2018-014D
Orbit
SSO
Last TLE update8 hours ago
Origin
Flag of USSpire (US)
ManufacturerSpire/Glasgow
MissionOperational Commercial Com/MetRO
Bus & MotorCUBESAT 3U, Unknown motor
Mass4.6 kg wet, 4.6 kg dry
Launch date (UTC)
2018-02-01 (7 years ago)
Launch vehicle
SOYUZ-2-1A
Launch site
Vostochny Cosmodrome (VOSTO)
Object type
Payload
Rocket body
Debris
Shape & HBRBox + 2 Pan, 0.7 m
Radar Cross Section0.124 m², Small (<0.1 m²)

Expand to show TLE details & history

TLE from 8 hours ago
0 LEMUR 2 URAMCHANSOL
1 43183U 18014D   24361.25256403  .00076078  00000-0  20951-2 0  9993
2 43183  97.5646 268.0045 0011970  45.8354 314.3871 15.36795523378102
Epoch: 2024-12-26T06:03Z
Definitive object data (Epoch: 2024-12-26T06:03:41.532Z)
Latitude-0.00007°
Longitude81.84684°
Altitude452.983 km
Speed7.644 km/s
True Right ascension17h 52m 01s
True Declination0° 00' 00"
Sunlit
Object was in daylight at TLE epoch
Visualization TLE readout
Latitude59.92487°
Longitude-84.61385°
Altitude463.503 km
Speed7.642 km/s
Apparent Right ascension03h 44m 57s
Apparent Declination15° 19' 46"
Sunlit
Object is in full shadow
Visualization observer readout
Local Sidereal Time13:45:18
Azimuth326.95° NNW
Elevation-28.133°
Doppler factor1
Orbital elements
Apogee altitude460.719 km
Perigee altitude444.367 km
Semi-major axis6,830.68 km
Eccentricity0.001197
Inclination97.5646°
RAAN268.0045°
Arg. of periapsis45.8354°
True anomaly314.28897°
Mean anomaly314.3871°
Eccentric anomaly314.33805°
Mean motion3.84457 °/min
BSTAR0.0020951
Orbital period93.64 mins
Loading maneuver chart data...
Loading historical data...
Loading historical data...
Loading historical data...
Loading historical data...
Loading historical data...
Loading historical data...
Loading historical data...

LEMUR 2 URAMCHANSOL Visibility forecast

Observer location: undefined°, undefined

Span
Click to sort rows by Start time (UTC) header in descending order
Start Az.
Max El. time (UTC)
Max El. Az.
Max El.
End time (UTC)
End Az.
4 mins2024-12-26 18:42:28.383Z225.338° WSW2024-12-26 18:43:28.383Z250.193° W22.212°2024-12-26 18:46:28.383Z318.193° NNW
|